User: anonymous   Login
Location: Albany
(35.0000°S, 118.0000°E)
Time: 18:33:53
(UTC-04:00)
Language:

ERS-1 Rocket - Orbit

View from above orbital plane
View from above orbital plane
View from above satellite
View from above satellite

Ground track
Ground track

The orbit data is extracted from the following two-line orbital elements,

1 21610U 91050F   16120.76413480  .00000045  00000-0  28362-4 0  9992
2 21610  98.6608 167.4105 0004453  97.8509  13.1507 14.40717994300586
Epoch (UTC): 29 April 2016 18:20:21
Eccentricity: 0.0004453
inclination: 98.6608°
perigee height: 753 km
apogee height: 759 km
right ascension of ascending node: 167.4105°
argument of perigee: 97.8509°
revolutions per day: 14.40717994
mean anomaly at epoch: 13.1507°
orbit number at epoch: 30058

The dashed part of the orbit path shows where the satellite is in the earth's shadow,  

DLR